Regional Weather Roundup
Issued by NWS

Home | Current Version | Previous Version | Text Only | Print | Product List | Glossary Off
Versions: 1 2 3 4 5 6 7 8 9 10 11 12 13 14 15 16 17 18 19 20 21 22 23 24 25 26 27 28 29 30 31 32 33 34 35 36 37 38 39 40 41 42 43 44 45 46 47 48 49 50

000
ASUS44 KMEG 311700
RWRTN
TENNESSEE HOURLY STATE WEATHER ROUNDUP
NATIONAL WEATHER SERVICE MEMPHIS TN
1200 PM CDT FRI JUL 31 2015

TNZ002-004-019-021-049-052-054-088>092-311800-
WEST TENNESSEE

CITY           SKY/WX    TMP DP  RH WIND       PRES   REMARKS
MEMPHIS INTL   MOSUNNY   90  61  37 NE15G23   30.10S HX  90
NWS MEMPHIS      N/A     87 N/A N/A MISG        N/A
JACKSON        SUNNY     91  63  39 NE16      30.10F HX  92
DYERSBURG        N/A    N/A N/A N/A MISG        N/A
PARIS          SUNNY     84  66  54 NE10      30.11F
LEXINGTON      MOSUNNY   84  66  54 N8        30.08F
$$

TNZ008-025-027-028-033-062-065-066-311800-
NORTH MIDDLE TENNESSEE

CITY           SKY/WX    TMP DP  RH WIND       PRES   REMARKS
NASHVILLE      MOSUNNY   87  59  38 E9        30.08F
CLARKSVILLE    SUNNY     85  67  54 VRB3      30.09F
CROSSVILLE     SUNNY     80  55  42 NE8       30.13F
$$

TNZ061-075-076-078-094-096-097-311800-
SOUTH MIDDLE TENNESSEE

CITY           SKY/WX    TMP DP  RH WIND       PRES   REMARKS
FAYETTEVILLE   SUNNY     82  57  42 N15       30.07F
TULLAHOMA      SUNNY     82  57  42 NE12      30.10S
WINCHESTER     SUNNY     84  59  42 N13       30.08F
MCMINNVILLE    SUNNY     82  64  54 NE9       30.10S
COLUMBIA       SUNNY     88  66  48 NE8       30.07F HX  90
SHELBYVILLE    SUNNY     86  63  45 NE9       30.09F
$$

TNZ017-018-042-046-047-311800-
NORTHEAST TENNESSEE

CITY           SKY/WX    TMP DP  RH WIND       PRES   REMARKS
TRI CITIES     MOSUNNY   82  58  43 VRB5      30.10S
ELIZABETHTON   SUNNY     79  57  47 N5        30.09S
$$

TNZ012-013-036-069-073-074-311800-
CENTRAL EAST TENNESSEE

CITY           SKY/WX    TMP DP  RH WIND       PRES   REMARKS
KNOXVILLE      MOSUNNY   83  59  44 NE10      30.06F
OAK RIDGE      SUNNY     84  56  38 E6G16     30.08F
GATLINBURG     SUNNY     82  57  42 E5        30.07S
$$

TNZ083-085-099-311800-
SOUTHEAST TENNESSEE

CITY           SKY/WX    TMP DP  RH WIND       PRES   REMARKS
CHATTANOOGA    MOSUNNY   85  58  39 NE10G22   30.05F
$$

SKY/WX REPORTED AS FAIR MEANS FEW OR NO CLOUDS BELOW
12 THOUSAND FEET.



USA.gov is the U.S. government's official web portal to all federal, state and local government web resources and services.